Date,TemperatureHighF,TemperatureAvgF,TemperatureLowF,DewpointHighF,DewpointAvgF,DewpointLowF,HumidityHigh,HumidityAvg,HumidityLow,PressureMaxIn,PressureMinIn,WindSpeedMaxMPH,WindSpeedAvgMPH,GustSpeedMaxMPH,PrecipitationSumIn
2013-1-4,30.0,29.6,29.3,24.1,23.6,23.0,78,78,77,29.62,29.60,11,-78,12,0.00
2013-1-5,30.9,23.2,11.1,26.1,12.5,4.1,86,64,44,30.22,29.61,28,6,29,0.00
2013-1-6,27.1,17.3,8.4,21.7,13.0,3.2,95,83,73,30.20,29.86,14,2,16,0.01
2013-1-7,20.8,14.1,8.1,15.4,6.4,-3.1,89,72,48,30.36,29.96,14,3,19,0.00
2013-1-8,35.8,22.9,8.2,25.0,16.1,2.1,90,76,54,30.30,30.14,13,4,16,0.00
2013-1-9,36.7,30.2,21.7,31.5,26.2,19.0,95,85,71,30.36,29.76,18,4,22,0.00
2013-1-10,40.6,34.9,27.1,32.0,25.6,19.2,93,69,53,30.45,29.77,38,9,38,0.03
2013-1-11,36.3,29.5,22.6,21.9,18.5,17.1,80,64,47,30.48,30.23,11,2,12,0.00
2013-1-12,38.1,34.3,30.2,37.4,30.5,21.9,97,86,67,30.23,30.05,8,1,9,0.01
2013-1-13,39.6,37.7,36.1,39.0,37.0,35.4,98,97,97,30.11,29.88,11,3,12,0.01
2013-1-14,49.8,41.3,33.8,47.8,35.7,24.4,98,82,48,30.16,29.73,24,5,27,0.01
2013-1-15,34.3,30.2,24.6,25.3,20.6,17.1,77,67,59,30.27,30.13,10,1,12,0.00
2013-1-16,28.8,26.0,23.9,27.7,23.2,18.0,96,89,74,30.23,29.72,9,2,10,0.00
2013-1-17,34.5,23.0,6.3,31.5,14.8,-9.2,96,73,37,30.12,29.68,25,5,36,0.09
2013-1-18,13.5,5.7,-2.6,-5.3,-9.0,-13.4,62,50,35,30.33,30.09,19,3,24,0.00
2013-1-19,25.2,17.5,5.0,20.1,10.8,-5.1,86,75,60,30.31,29.88,13,2,14,0.00
2013-1-20,41.5,30.5,17.2,36.1,23.6,0.5,96,78,44,29.88,29.34,29,7,38,0.11
2013-1-21,18.3,13.1,7.0,0.5,-3.6,-7.2,56,47,36,29.98,29.75,24,5,30,0.00
2013-1-22,11.1,5.8,1.4,-1.1,-5.1,-10.7,72,60,48,29.93,29.79,19,5,23,0.00
2013-1-23,3.0,-2.4,-7.4,-8.3,-16.1,-18.8,66,52,37,30.00,29.92,24,7,25,0.00
2013-1-24,9.9,-0.5,-8.3,-7.1,-13.4,-17.9,65,54,38,30.01,29.83,24,8,29,0.00
2013-1-25,18.0,8.2,0.7,0.1,-4.4,-9.2,73,56,42,30.13,30.01,26,6,30,0.00
2013-1-26,17.1,9.9,5.4,-0.4,-3.3,-5.3,64,55,41,30.04,29.93,23,4,27,0.00
2013-1-27,21.6,12.1,4.5,6.1,0.7,-4.9,70,60,49,30.35,30.04,20,7,26,0.00
2013-1-28,25.9,17.2,7.2,14.5,0.0,-3.8,81,48,29,30.37,30.04,10,2,15,0.00
2013-1-29,33.8,25.1,14.9,23.2,17.2,12.6,92,73,56,30.18,30.04,9,2,11,0.00
2013-1-30,52.3,41.4,29.5,51.8,40.2,22.8,98,95,76,30.12,29.34,22,8,27,0.11
2013-1-31,56.5,45.4,26.8,55.0,38.6,12.2,98,79,47,29.36,28.68,48,13,49,0.48
2013-2-1,27.0,18.1,8.4,13.1,5.2,1.4,73,57,47,29.97,29.31,27,8,31,0.00
2013-2-2,21.0,14.1,6.3,10.9,2.3,-2.6,76,60,43,30.14,29.96,12,2,15,0.00
2013-2-3,26.8,19.9,12.7,15.1,12.6,7.7,86,73,58,30.03,29.65,16,5,22,0.00
2013-2-4,25.0,17.8,9.9,16.2,6.2,-6.0,87,62,37,29.76,29.52,29,8,36,0.00
2013-2-5,19.8,11.2,4.5,1.6,-5.6,-9.9,63,47,30,30.00,29.76,25,5,25,0.00
2013-2-6,31.5,18.0,11.3,20.5,6.9,-3.5,83,62,44,30.22,29.87,20,5,24,0.00
2013-2-7,13.5,7.1,1.0,-3.1,-11.5,-16.6,57,42,26,30.58,30.22,19,4,22,0.00
2013-2-8,10.4,6.1,1.6,6.4,-1.7,-12.8,87,70,48,30.60,30.05,25,8,27,0.00
2013-2-9,17.4,12.4,8.4,14.4,9.6,5.5,89,88,85,30.06,29.80,30,11,40,0.00
2013-2-10,32.5,21.2,11.5,12.4,6.6,3.0,92,56,31,30.32,30.06,18,4,26,0.00
2013-2-11,33.1,22.9,10.4,32.4,16.4,1.8,97,77,50,30.30,29.52,8,1,9,0.00
2013-2-12,38.8,34.8,31.5,35.6,31.9,29.3,100,89,76,29.66,29.46,15,4,19,0.19
2013-2-13,39.7,35.7,31.5,29.7,24.9,20.7,77,65,50,29.73,29.66,18,4,19,0.00
2013-2-14,40.8,32.1,27.1,24.1,20.6,17.1,82,64,40,29.94,29.69,14,2,16,0.00
2013-2-15,44.8,33.3,22.8,33.1,26.1,18.0,91,75,63,29.96,29.85,12,2,15,0.00
2013-2-16,33.6,30.0,23.2,31.5,27.1,16.3,95,89,75,29.91,29.77,12,2,13,0.04
2013-2-17,23.4,20.0,15.6,18.3,13.5,6.3,87,76,66,29.77,29.05,38,8,43,0.01
2013-2-18,26.6,18.8,12.4,8.1,3.8,0.1,66,52,43,29.89,29.26,38,14,43,0.00
2013-2-19,42.6,29.5,15.6,32.4,11.3,1.9,96,50,22,30.04,29.63,21,5,25,0.00
2013-2-20,42.1,33.5,26.1,41.4,28.6,18.3,97,83,67,29.63,29.30,23,8,27,0.80
2013-2-21,34.2,25.9,19.6,27.1,18.9,12.2,92,74,70,30.10,29.52,22,7,28,0.00
2013-2-22,37.8,29.9,23.4,23.4,21.2,19.6,87,71,51,30.35,30.10,15,3,28,0.00
2013-2-23,31.8,26.7,20.5,27.7,23.7,18.1,95,88,79,30.32,30.04,12,3,15,0.00
2013-2-24,29.3,27.6,25.9,27.9,26.0,23.7,95,94,89,30.04,29.78,13,6,14,0.00
2013-2-25,41.4,31.5,25.2,28.4,24.6,18.3,93,77,48,30.19,29.87,14,3,18,0.19
2013-2-26,42.4,35.5,29.7,28.4,25.7,24.4,85,68,51,30.31,30.19,10,2,11,0.00
2013-2-27,40.5,31.9,23.7,28.9,25.0,21.0,95,77,49,30.25,29.75,35,7,38,0.00
2013-2-28,33.4,31.6,29.1,32.7,30.7,27.9,97,97,95,29.75,29.53,24,9,24,0.10
2013-3-1,33.3,31.0,29.7,32.4,30.0,28.4,97,96,94,29.61,29.52,15,4,19,0.01
2013-3-2,37.4,33.1,29.5,36.5,32.1,28.2,98,96,92,29.58,29.54,12,1,14,0.04
2013-3-3,42.3,37.1,34.0,40.3,34.5,30.9,98,90,71,29.56,29.41,13,2,14,0.01
2013-3-4,34.9,32.8,29.7,33.4,30.7,27.3,96,92,82,29.66,29.39,18,6,20,0.14
2013-3-5,40.8,36.2,33.8,35.8,33.6,32.2,96,90,78,30.13,29.66,21,7,23,0.05
2013-3-6,37.0,33.7,31.1,32.4,27.9,22.1,94,79,66,30.29,30.13,28,10,28,0.00
2013-3-7,35.8,31.9,30.4,25.2,23.8,22.1,76,72,63,30.25,30.13,28,11,32,0.00
2013-3-8,45.0,35.2,28.0,26.2,23.2,20.1,79,63,39,30.22,30.10,25,10,28,0.00
2013-3-9,43.7,34.3,28.4,24.8,24.0,23.0,82,67,45,30.35,30.20,18,7,21,0.00
2013-3-10,40.3,30.5,22.8,28.9,25.1,20.8,94,81,59,30.40,30.25,14,3,15,0.00
2013-3-11,48.4,38.3,32.2,36.9,33.2,28.8,92,83,57,30.25,30.09,18,6,20,0.00
2013-3-12,47.8,43.3,37.0,46.9,41.7,34.9,97,94,87,30.10,29.73,18,5,22,0.22
2013-3-13,48.7,42.1,33.4,47.8,37.8,24.8,97,85,65,29.73,29.60,25,4,27,0.34
2013-3-14,39.7,31.6,21.6,29.7,22.8,11.3,87,70,47,29.67,29.55,23,5,24,0.00
2013-3-15,34.2,24.5,15.6,15.6,9.1,5.4,68,53,31,29.72,29.54,24,4,24,0.00
2013-3-16,32.7,25.9,19.0,20.5,13.2,8.4,85,60,37,29.85,29.57,19,3,20,0.00
2013-3-17,26.4,19.8,13.6,10.0,3.5,-3.5,74,50,28,30.24,29.84,29,6,33,0.00
2013-3-18,34.5,21.6,9.1,11.1,-0.3,-4.4,57,39,23,30.38,30.24,18,4,20,0.00
2013-3-19,24.4,23.0,21.6,22.5,14.6,1.6,98,73,40,30.27,29.69,24,9,24,0.00
2013-3-20,32.2,24.2,16.9,27.0,20.5,14.7,93,86,69,29.69,29.50,25,6,25,0.03
2013-3-21,39.6,30.2,20.8,23.5,17.4,10.2,91,63,30,29.70,29.57,20,5,20,0.00
2013-3-22,37.9,29.5,20.8,20.8,17.4,14.2,77,62,40,29.58,29.50,18,4,19,0.00
2013-3-23,39.7,32.1,23.5,25.9,21.3,16.3,76,65,50,29.52,29.36,27,10,31,0.00
2013-3-24,44.8,36.8,31.3,29.3,26.7,24.4,87,68,48,29.73,29.52,19,5,23,0.00
2013-3-25,43.0,36.6,30.4,31.5,27.7,25.0,89,71,50,29.74,29.59,19,5,19,0.00
2013-3-26,47.5,37.9,28.6,31.1,27.2,22.6,82,66,47,29.65,29.53,15,3,22,0.00
2013-3-27,41.4,36.9,34.3,39.0,34.1,29.3,95,90,81,29.84,29.63,13,3,16,0.10
2013-3-28,51.3,41.7,34.2,39.0,33.0,27.1,94,74,40,29.90,29.83,16,2,16,0.01
2013-3-29,52.5,44.0,37.4,37.6,33.3,29.8,89,67,46,29.93,29.86,15,4,20,0.00
2013-3-30,52.7,42.3,34.2,30.9,22.9,12.0,83,51,22,30.02,29.92,14,2,19,0.00
2013-3-31,53.2,41.5,30.7,34.3,19.4,10.0,87,43,20,30.07,29.83,23,4,25,0.00
2013-4-1,45.5,37.5,30.7,40.1,35.2,23.4,97,91,73,29.83,29.44,20,4,29,0.43
2013-4-2,33.6,28.5,23.9,23.7,14.4,8.8,86,56,38,29.71,29.58,27,10,33,0.03
2013-4-3,36.7,28.7,20.1,21.4,17.1,12.9,90,63,45,29.93,29.70,29,9,37,0.00
2013-4-4,48.6,37.3,27.3,24.3,13.1,5.2,64,39,19,30.11,29.89,25,8,27,0.00
2013-4-5,55.4,41.3,33.6,30.2,27.1,20.3,85,59,30,29.89,29.60,21,5,23,0.00
2013-4-6,37.0,30.3,24.3,23.2,11.0,2.8,86,47,25,30.30,29.73,28,7,33,0.00
2013-4-7,44.8,34.3,21.7,36.5,21.1,7.0,84,59,43,30.31,29.87,37,7,41,0.00
2013-4-8,52.3,45.6,38.5,37.2,34.9,30.0,84,67,50,30.10,29.84,20,4,22,0.00
2013-4-9,40.6,37.8,33.3,39.9,35.5,29.3,97,92,71,30.10,29.89,12,3,12,0.25
2013-4-10,54.7,44.2,37.4,44.8,37.4,31.6,97,79,53,29.94,29.84,13,2,18,0.05
2013-4-11,46.4,39.8,31.6,31.8,20.6,13.1,77,48,30,30.17,29.82,16,3,20,0.00
2013-4-12,38.8,32.2,27.7,30.2,21.9,12.9,96,68,47,30.25,29.93,15,4,20,0.00
2013-4-13,42.8,36.2,31.3,37.8,33.8,30.2,97,91,80,29.93,29.78,11,2,13,0.18
2013-4-14,47.8,40.5,36.5,42.3,37.1,33.8,100,88,70,30.12,29.87,12,2,13,0.11
2013-4-15,54.0,43.3,34.0,38.8,35.6,31.3,93,76,49,30.36,30.12,16,3,19,0.00
2013-4-16,55.9,46.1,37.2,45.7,38.3,34.9,93,76,51,30.38,29.85,31,10,36,0.00
2013-4-17,57.2,47.8,38.5,46.2,32.0,20.7,95,57,33,30.33,29.87,26,6,26,0.05
2013-4-18,48.6,41.1,33.3,34.0,23.5,14.4,67,50,34,30.45,30.06,21,5,25,0.00
2013-4-19,70.0,57.7,47.7,59.9,50.9,32.5,95,79,55,30.07,29.55,31,12,40,0.01
2013-4-20,60.4,50.4,39.0,59.0,40.3,26.1,96,72,37,30.08,29.49,26,8,40,0.64
2013-4-21,48.6,39.8,33.4,26.8,20.2,13.3,73,47,26,30.67,30.08,19,4,25,0.00
2013-4-22,53.1,40.9,31.6,31.5,20.6,12.2,82,46,25,30.80,30.64,18,4,20,0.00
2013-4-23,49.8,38.9,28.2,40.5,32.8,26.8,96,81,45,30.66,30.22,16,4,19,0.00
2013-4-24,55.9,47.8,41.4,52.2,46.0,39.6,97,93,84,30.22,29.73,16,6,18,0.02
2013-4-25,58.5,49.9,40.8,48.2,37.9,28.8,97,67,35,30.26,29.72,22,4,25,0.11
2013-4-26,60.3,47.8,37.0,32.2,27.6,19.4,74,49,25,30.41,30.26,14,4,20,0.00
2013-4-27,62.8,49.4,34.7,36.9,31.4,26.8,85,53,27,30.40,30.24,10,3,12,0.00
2013-4-28,67.5,54.4,38.1,39.2,34.8,30.7,89,51,27,30.30,30.17,16,4,19,0.00
2013-4-29,67.8,55.1,40.1,41.9,34.2,25.5,79,50,21,30.24,30.15,18,4,21,0.00
2013-4-30,71.1,56.1,37.4,42.8,36.7,30.2,95,54,24,30.32,30.22,15,3,21,0.00
2013-5-1,76.5,60.0,41.7,40.1,35.3,31.8,71,43,23,30.40,30.31,13,2,15,0.00
2013-5-2,66.6,54.6,41.7,45.1,36.4,26.6,78,52,25,30.50,30.36,18,6,24,0.00
2013-5-3,67.6,54.0,39.9,44.8,40.0,34.7,82,61,40,30.54,30.33,18,5,20,0.00
2013-5-4,68.5,52.2,39.9,41.9,34.9,21.2,88,58,17,30.38,30.22,15,4,19,0.00
2013-5-5,72.0,53.5,36.9,43.2,37.6,29.8,93,60,24,30.28,30.14,15,5,19,0.00
2013-5-6,72.3,54.5,39.4,46.2,40.2,32.0,95,64,25,30.22,30.07,18,6,22,0.00
2013-5-7,78.6,59.8,45.0,52.9,44.9,36.3,96,65,23,30.12,29.99,25,7,25,0.00
2013-5-8,78.1,62.1,50.2,59.7,54.8,46.8,97,80,34,30.20,30.10,23,4,30,0.00
2013-5-9,62.2,57.7,54.3,58.8,56.0,53.2,97,94,87,30.10,29.86,12,3,12,0.11
2013-5-10,71.4,60.3,53.2,61.7,57.4,52.3,98,91,62,29.92,29.84,14,2,19,0.10
2013-5-11,59.9,55.8,52.2,58.8,55.0,51.3,98,97,96,29.91,29.62,21,5,22,0.45
2013-5-12,59.7,55.3,45.7,58.8,53.8,43.0,98,95,88,29.65,29.48,19,3,23,0.11
2013-5-13,55.9,47.2,38.5,43.5,33.9,28.2,95,63,36,29.96,29.64,20,5,23,0.05
2013-5-14,54.0,45.3,36.1,35.4,32.3,30.2,82,61,42,29.98,29.90,12,2,15,0.00
2013-5-15,63.0,49.3,36.1,47.1,33.8,23.9,96,60,24,29.94,29.63,27,6,28,0.18
2013-5-16,70.5,56.4,47.8,55.4,47.6,42.4,100,75,39,29.73,29.50,19,5,24,0.20
2013-5-17,60.6,52.0,46.6,44.1,40.1,36.0,86,65,45,30.16,29.72,14,3,20,0.00
2013-5-18,63.9,51.6,43.2,47.3,40.1,36.1,91,66,41,30.30,30.16,14,3,18,0.02
2013-5-19,66.6,50.3,37.9,48.7,43.8,36.7,97,80,50,30.36,30.20,15,3,19,0.00
2013-5-20,63.7,54.1,48.2,58.6,52.1,46.2,99,93,82,30.20,29.89,11,3,12,0.86
2013-5-21,55.6,52.8,49.6,53.2,51.5,48.6,98,95,89,30.03,29.94,11,2,11,0.10
2013-5-22,53.8,50.8,48.4,52.0,49.6,47.5,98,96,92,30.02,29.91,15,4,15,0.27
2013-5-23,69.1,57.1,47.5,63.5,55.2,46.9,98,94,79,29.92,29.73,21,5,21,0.08
2013-5-24,64.2,59.0,47.7,63.3,58.0,46.2,100,97,95,29.84,29.60,23,5,24,1.05
2013-5-25,47.7,45.7,43.0,46.2,44.5,41.9,97,96,90,29.83,29.72,31,11,40,0.30
2013-5-26,52.0,46.5,42.8,50.0,44.9,41.0,97,94,84,29.88,29.65,19,5,24,0.35
2013-5-27,63.7,51.2,38.7,42.4,38.6,32.5,94,66,33,30.12,29.87,22,4,28,0.00
2013-5-28,72.3,57.7,40.3,46.9,40.0,35.2,91,56,28,30.19,30.11,18,3,21,0.00
2013-5-29,57.6,52.3,45.0,54.5,48.7,38.3,97,88,61,30.18,29.95,11,3,13,0.09
2013-5-30,81.3,65.5,52.5,66.6,58.0,51.6,98,80,48,29.97,29.91,18,3,23,0.12
2013-5-31,90.9,75.0,61.7,70.9,64.6,58.3,90,72,43,29.97,29.79,18,4,24,0.00
2013-6-1,91.6,76.2,63.9,72.9,66.1,60.8,95,74,38,29.87,29.72,19,3,22,0.23
2013-6-2,90.0,74.0,65.3,73.0,66.5,61.3,95,80,45,29.73,29.55,29,5,45,0.01
2013-6-3,77.5,68.4,57.0,65.3,62.7,53.8,96,83,57,29.72,29.60,20,5,22,0.07
2013-6-4,64.6,56.8,48.6,53.6,45.2,40.1,94,67,43,29.96,29.71,23,5,26,0.00
2013-6-5,71.2,58.9,47.8,42.8,39.5,32.0,78,52,26,30.10,29.96,21,4,21,0.00
2013-6-6,68.5,58.7,48.6,50.4,43.9,37.6,75,59,34,30.18,30.10,10,2,11,0.00
2013-6-7,64.4,57.0,51.8,53.6,48.8,40.5,96,76,43,30.13,29.97,11,2,14,0.16
2013-6-8,62.4,55.6,52.7,57.0,53.9,51.8,97,94,82,29.98,29.67,23,5,23,1.13
2013-6-9,71.2,58.8,50.9,61.2,54.4,49.8,96,86,67,30.10,29.94,14,2,20,0.00
2013-6-10,73.8,62.9,50.7,58.6,53.0,48.4,96,73,45,30.17,29.99,13,3,14,0.00
2013-6-11,59.0,55.8,53.2,55.8,53.9,52.3,97,93,89,29.99,29.52,19,5,22,0.49
2013-6-12,58.5,56.0,54.0,56.5,53.9,50.5,97,93,79,29.71,29.47,20,6,22,0.50
2013-6-13,70.0,61.4,52.2,55.6,50.6,44.2,94,70,44,29.75,29.67,14,3,15,0.02
2013-6-14,72.7,61.4,52.5,57.2,53.8,50.5,95,78,51,29.70,29.59,13,1,16,0.02
2013-6-15,74.5,63.5,51.8,54.5,45.7,40.5,93,55,32,29.80,29.66,20,4,24,0.02
2013-6-16,77.2,63.1,52.9,57.0,51.2,45.1,92,67,37,29.84,29.67,18,4,22,0.01
2013-6-17,76.3,64.0,54.3,61.9,57.5,53.1,97,81,51,29.79,29.65,16,4,27,0.33
2013-6-18,69.3,60.9,50.0,55.6,49.8,44.8,94,69,43,29.91,29.78,13,2,16,0.01
2013-6-19,72.9,62.1,48.4,49.5,45.2,39.9,87,57,32,30.08,29.88,15,2,15,0.00
2013-6-20,75.6,64.8,54.9,52.9,47.4,43.9,73,55,36,30.19,30.08,19,4,19,0.00
2013-6-21,81.1,68.1,54.0,55.9,51.5,47.8,90,58,33,30.15,30.08,15,3,18,0.00
2013-6-22,74.1,66.8,58.8,64.8,59.0,50.0,92,77,55,30.16,30.05,8,1,9,0.03
2013-6-23,78.3,67.3,59.2,70.2,64.4,57.4,98,91,75,30.08,29.88,10,2,11,0.01
2013-6-24,86.2,75.2,66.9,71.2,68.4,66.0,97,81,57,29.88,29.73,13,3,16,0.01
2013-6-25,87.4,74.9,66.4,73.6,66.6,60.3,96,77,57,29.75,29.62,16,3,26,0.66
2013-6-26,71.2,65.6,61.0,67.8,63.3,59.7,97,92,87,29.83,29.63,12,3,14,0.02
2013-6-27,66.0,60.6,56.8,62.2,59.1,55.9,98,95,87,29.86,29.79,13,4,15,0.01
2013-6-28,62.8,58.6,55.8,62.2,58.0,54.9,98,98,97,29.85,29.54,22,8,23,0.58
2013-6-29,70.9,65.6,61.7,69.1,64.8,61.2,98,97,92,29.64,29.52,16,2,24,0.15
2013-6-30,80.4,71.0,63.7,72.0,67.1,63.1,98,89,68,29.86,29.62,12,4,14,0.07
2013-7-1,78.3,71.8,66.0,71.1,67.6,63.7,98,87,68,30.08,29.86,7,1,9,0.06
2013-7-2,66.0,58.3,55.2,63.1,56.2,52.7,99,93,75,30.21,30.08,16,4,16,0.50
2013-7-3,82.9,68.1,56.5,73.0,64.0,55.6,97,88,68,30.15,30.03,12,3,14,0.00
2013-7-4,88.3,77.7,68.4,73.4,69.9,66.7,98,79,53,30.09,29.97,15,4,21,0.01
2013-7-5,88.5,79.7,70.2,72.0,69.8,66.4,96,74,52,30.01,29.91,20,3,21,0.00
2013-7-6,85.8,78.4,71.4,72.3,68.3,62.1,92,72,49,29.94,29.82,16,4,20,0.00
2013-7-7,88.2,78.3,68.0,68.9,65.7,62.1,82,66,48,29.87,29.79,18,4,19,0.00
2013-7-8,76.5,67.9,57.9,67.5,59.5,51.8,91,75,53,30.02,29.85,12,2,12,0.07
2013-7-9,78.1,67.8,60.1,66.9,62.1,58.1,96,83,55,30.09,30.01,13,3,15,0.00
2013-7-10,71.4,65.7,62.4,65.7,63.0,60.4,97,91,82,30.04,29.73,14,3,18,0.08
2013-7-11,77.4,69.6,64.2,71.4,65.9,56.8,98,89,67,29.92,29.68,9,2,12,0.20
2013-7-12,80.1,68.8,59.7,61.2,55.0,49.3,85,64,36,30.16,29.92,12,2,13,0.00
2013-7-13,83.3,72.3,55.8,63.7,56.7,51.4,89,60,38,30.26,30.16,14,3,15,0.00
2013-7-14,91.6,77.4,62.1,70.3,63.7,57.6,88,65,38,30.22,30.09,12,2,12,0.00
2013-7-15,92.7,80.0,64.6,69.8,64.9,61.0,91,63,37,30.11,29.98,16,3,19,0.00
2013-7-16,91.9,81.2,70.5,70.2,66.8,63.7,84,63,42,30.10,30.01,10,1,12,0.00
2013-7-17,87.8,75.8,62.8,73.8,67.5,60.8,95,77,58,30.11,29.84,27,5,29,0.15
2013-7-18,83.8,73.9,66.0,70.7,66.5,60.4,96,80,52,29.94,29.85,37,3,37,0.50
2013-7-19,89.6,75.3,65.8,77.5,70.6,64.6,98,87,63,29.87,29.51,30,5,30,0.24
2013-7-20,84.6,74.6,66.2,73.0,67.3,56.1,94,79,59,29.72,29.49,20,4,21,0.24
2013-7-21,79.3,68.0,58.6,63.1,56.2,52.2,91,67,42,29.97,29.72,13,2,16,0.00
2013-7-22,76.5,66.0,54.9,64.6,55.8,49.3,90,71,47,30.01,29.90,13,2,16,0.00
2013-7-23,68.7,62.9,57.0,67.3,61.3,54.5,97,95,82,29.90,29.49,11,2,13,1.05
2013-7-24,79.3,67.0,55.6,70.2,61.5,49.5,98,84,60,29.93,29.50,18,4,22,0.01
2013-7-25,73.6,62.9,51.3,59.0,53.5,47.3,86,72,56,30.09,29.93,12,2,14,0.00
2013-7-26,64.9,62.6,59.9,63.5,60.5,57.6,96,93,78,30.08,29.86,16,3,20,0.32
2013-7-27,82.9,70.6,61.0,66.7,62.8,59.5,97,78,52,29.99,29.84,18,3,19,0.00
2013-7-28,78.3,69.4,61.5,67.1,64.1,60.6,97,84,67,30.01,29.96,18,3,18,0.00
2013-7-29,74.7,67.3,63.7,69.3,65.0,62.4,97,92,82,30.01,29.94,8,2,10,0.22
2013-7-30,78.6,68.4,60.1,64.8,59.6,54.7,98,76,46,30.00,29.93,12,2,16,0.22
2013-7-31,80.8,68.9,57.9,61.5,57.8,54.5,90,70,43,30.04,29.94,15,3,16,0.00
2013-8-1,79.2,68.4,57.4,65.1,59.3,54.5,96,75,44,29.99,29.84,21,4,24,0.00
2013-8-2,72.5,63.6,58.8,66.6,61.9,57.7,97,94,79,29.84,29.70,11,3,14,0.68
2013-8-3,74.7,63.5,57.9,63.5,59.9,56.5,98,89,60,29.77,29.65,13,3,16,0.11
2013-8-4,76.5,64.7,56.7,61.9,57.7,53.6,96,79,52,29.75,29.66,19,3,19,0.02
2013-8-5,68.7,61.1,54.9,54.9,51.8,46.0,89,72,55,29.95,29.73,24,5,24,0.00
2013-8-6,78.3,65.0,50.4,60.6,53.2,46.0,89,67,44,30.09,29.95,13,4,14,0.00
2013-8-7,77.7,65.6,54.1,58.1,53.4,49.5,91,67,42,30.14,30.07,18,4,22,0.00
2013-8-8,65.7,60.8,54.3,63.9,59.6,52.3,98,96,90,30.08,29.99,13,2,15,0.19
2013-8-9,71.4,66.1,63.1,70.0,65.3,62.2,98,97,95,29.99,29.66,18,3,20,1.74
2013-8-10,75.0,67.4,56.7,67.3,57.8,49.6,98,74,44,29.90,29.65,23,5,25,0.04
2013-8-11,77.2,64.6,52.3,58.5,53.8,49.5,91,70,42,29.97,29.88,16,4,19,0.00
2013-8-12,78.1,67.4,56.7,61.5,56.9,52.3,95,72,42,29.93,29.82,15,3,19,0.00
2013-8-13,75.4,65.0,55.0,66.7,61.1,53.1,96,88,68,29.86,29.65,16,2,20,0.25
2013-8-14,74.5,65.5,55.4,65.1,58.6,49.3,98,80,50,29.77,29.54,23,4,26,0.01
2013-8-15,74.5,62.9,52.0,55.8,52.4,48.6,89,70,47,30.01,29.77,18,4,20,0.00
2013-8-16,77.7,64.6,55.2,60.3,55.8,50.5,96,76,46,30.15,30.01,15,3,15,0.19
2013-8-17,77.4,65.4,55.6,60.6,56.7,53.1,97,76,47,30.21,30.13,10,2,13,0.20
2013-8-18,75.0,65.4,54.1,62.1,56.3,50.7,94,74,47,30.22,29.98,13,3,14,0.00
2013-8-19,83.8,69.9,56.1,65.3,60.9,55.0,96,76,50,29.98,29.79,16,4,19,0.00
2013-8-20,84.0,72.5,63.7,67.6,63.9,61.0,92,76,50,30.00,29.87,16,3,16,0.01
2013-8-21,85.3,74.1,63.3,68.2,64.9,61.0,94,75,48,30.05,29.90,19,5,22,0.00
2013-8-22,85.1,73.2,63.1,70.2,65.7,61.9,96,79,55,29.91,29.68,18,4,20,0.00
2013-8-23,74.7,65.7,53.2,66.2,56.1,49.6,95,73,45,30.10,29.68,13,2,18,0.03
2013-8-24,77.5,64.4,50.9,54.0,49.4,43.3,89,62,34,30.25,30.10,13,1,14,0.00
2013-8-25,78.1,66.2,54.3,56.8,52.2,45.1,84,63,34,30.30,30.08,11,2,13,0.00
2013-8-26,72.9,64.8,58.1,66.6,60.9,53.6,96,87,78,30.08,29.80,12,3,13,0.03
2013-8-27,83.7,71.6,62.6,70.0,65.2,61.0,96,82,52,29.84,29.78,10,1,10,0.00
2013-8-28,84.4,70.2,61.5,70.5,65.3,60.4,97,86,55,29.97,29.80,20,2,25,0.74
2013-8-29,65.3,60.7,54.7,64.4,57.6,52.3,97,90,75,30.11,29.96,22,4,22,0.11
2013-8-30,79.5,64.3,50.9,69.1,59.7,49.3,97,86,68,29.98,29.71,10,1,11,0.01
2013-8-31,77.5,69.3,63.9,70.9,66.3,63.0,98,91,74,29.78,29.71,10,2,11,0.51
2013-9-1,79.9,71.7,66.6,70.7,67.1,65.5,98,86,66,29.89,29.70,10,1,11,0.11
2013-9-2,67.8,63.9,60.4,66.6,63.0,59.5,98,97,94,29.92,29.71,19,7,21,1.44
2013-9-3,76.1,67.6,62.6,69.6,64.9,62.1,98,91,75,29.72,29.61,11,2,15,0.03
2013-9-4,76.5,66.4,59.0,63.9,58.6,53.4,97,78,48,29.83,29.66,16,4,23,0.00
2013-9-5,64.9,57.0,46.4,56.3,45.7,37.6,92,69,39,30.08,29.80,19,2,19,0.01
2013-9-6,66.7,54.5,42.3,48.6,43.2,39.0,91,68,42,30.15,29.97,18,4,22,0.00
2013-9-7,70.9,59.3,49.8,58.5,52.7,47.5,94,80,54,29.97,29.70,18,4,20,0.02
2013-9-8,61.2,56.3,45.9,56.7,49.5,38.1,96,79,52,29.98,29.63,20,4,23,0.12
2013-9-9,65.8,53.7,42.6,50.7,43.7,37.8,91,70,46,30.12,29.98,19,5,20,0.00
2013-9-10,66.6,58.8,50.5,61.0,55.4,48.7,95,89,77,30.05,29.99,12,2,13,0.00
2013-9-11,87.6,72.2,60.8,76.1,67.5,59.5,98,86,64,30.00,29.79,19,5,22,0.01
2013-9-12,75.0,69.7,66.6,71.6,67.9,65.7,97,94,83,29.91,29.56,20,4,22,0.46
2013-9-13,66.9,64.2,59.2,65.7,63.3,58.1,98,97,95,29.66,29.53,13,1,14,1.13
2013-9-14,67.5,59.5,51.6,59.4,55.8,49.1,97,88,70,29.96,29.62,13,2,15,0.41
2013-9-15,67.8,56.8,47.5,53.8,50.1,46.2,96,80,54,30.06,29.94,15,4,16,0.00
2013-9-16,58.6,53.1,40.3,56.8,47.8,34.3,100,83,58,30.20,29.90,18,3,25,0.07
2013-9-17,65.7,51.1,37.6,46.6,40.8,34.0,92,70,41,30.34,30.20,12,2,16,0.00
2013-9-18,70.9,56.9,43.7,49.8,45.4,41.5,93,69,38,30.23,30.02,15,4,16,0.00
2013-9-19,75.2,62.4,51.4,55.0,50.4,43.3,88,66,43,30.06,29.94,14,3,15,0.00
2013-9-20,76.3,63.9,53.8,58.8,54.5,49.6,92,73,51,30.05,29.96,12,2,13,0.00
2013-9-21,70.5,60.6,52.2,61.2,55.4,50.0,97,84,52,29.99,29.72,25,6,28,0.00
2013-9-22,69.6,62.3,52.2,64.9,59.8,47.1,97,92,79,29.72,29.51,23,6,26,0.76
2013-9-23,55.6,49.9,45.3,47.1,42.7,40.3,86,76,65,29.84,29.66,23,6,26,0.00
2013-9-24,52.3,48.6,45.0,45.1,43.1,40.6,92,81,74,29.83,29.76,22,4,22,0.05
2013-9-25,59.7,52.4,45.3,49.3,46.4,43.2,93,80,63,29.92,29.79,15,2,16,0.00
2013-9-26,63.1,54.4,46.0,51.6,48.5,44.4,95,81,63,30.09,29.92,13,2,16,0.00
2013-9-27,71.8,60.3,51.4,54.9,51.6,49.3,93,74,51,30.21,30.09,11,2,15,0.00
2013-9-28,73.6,61.4,51.6,54.3,50.0,45.5,91,69,38,30.30,30.21,9,1,11,0.00
2013-9-29,70.9,57.1,47.7,54.7,48.1,43.2,100,75,42,30.21,30.07,18,3,18,0.00
2013-9-30,66.4,52.3,42.8,52.2,44.2,36.0,97,77,36,30.09,29.93,9,2,10,0.00
2013-10-1,76.8,61.1,45.1,54.5,48.8,40.8,89,66,36,29.94,29.76,12,2,14,0.00
2013-10-2,77.4,64.4,52.5,60.4,52.4,46.0,94,68,37,29.81,29.65,22,5,25,0.00
2013-10-3,73.2,62.4,52.9,48.9,43.8,35.8,74,52,27,29.99,29.81,21,4,25,0.00
2013-10-4,68.7,58.4,51.4,49.6,43.9,37.2,75,60,37,30.05,29.97,12,3,15,0.00
2013-10-5,63.3,52.5,44.8,46.8,41.9,37.0,85,68,51,30.13,30.02,13,2,13,0.00
2013-10-6,58.5,49.9,41.7,45.3,38.3,33.6,93,66,45,30.27,30.13,11,4,12,0.11
2013-10-7,68.4,55.5,45.5,66.0,54.4,43.5,98,96,92,30.19,29.71,30,6,40,0.37
2013-10-8,64.0,52.8,42.6,63.0,43.5,37.2,96,72,48,30.35,29.73,21,5,27,0.40
2013-10-9,62.8,50.8,40.3,43.7,40.2,36.5,88,69,45,30.44,30.30,13,3,15,0.00
2013-10-10,67.3,52.4,40.5,48.7,43.9,38.8,95,75,43,30.30,30.13,11,3,12,0.00
2013-10-11,73.9,59.4,43.9,55.4,49.7,41.5,96,72,48,30.16,30.08,11,2,12,0.00
2013-10-12,57.9,53.2,51.3,52.7,48.2,44.8,94,83,71,30.38,30.16,13,3,14,0.00
2013-10-13,58.5,51.3,43.9,49.8,47.0,42.8,97,86,68,30.42,30.32,9,2,10,0.00
2013-10-14,61.5,54.1,47.1,52.0,48.9,45.7,95,83,68,30.32,30.18,11,4,14,0.00
2013-10-15,66.0,56.7,49.5,53.2,50.1,46.9,95,80,57,30.25,30.15,9,2,13,0.00
2013-10-16,60.6,54.1,48.9,53.8,50.8,47.3,97,89,66,30.18,29.84,13,2,15,0.00
2013-10-17,68.5,56.7,48.7,56.8,51.3,45.0,97,84,57,29.84,29.69,11,2,13,0.02
2013-10-18,61.0,53.1,46.4,54.5,48.3,43.3,97,84,67,29.75,29.55,15,4,19,0.20
2013-10-19,62.1,52.1,43.5,45.9,43.2,39.0,89,73,51,29.86,29.72,14,4,18,0.00
2013-10-20,60.3,52.3,45.7,51.3,40.2,28.6,95,68,31,29.86,29.61,24,5,25,0.04
2013-10-21,59.7,48.8,39.0,41.7,35.8,31.1,80,62,35,30.00,29.86,16,4,18,0.00
2013-10-22,59.2,49.4,41.7,52.2,45.7,39.0,95,87,66,29.94,29.63,24,4,31,0.10
2013-10-23,51.3,43.3,34.2,40.1,35.8,32.2,95,76,51,29.72,29.54,14,2,15,0.00
2013-10-24,46.8,40.8,33.6,34.7,29.6,24.8,86,65,46,29.71,29.55,24,6,26,0.00
2013-10-25,49.8,42.2,34.2,33.6,30.8,26.6,79,65,47,30.00,29.71,19,5,21,0.00
2013-10-26,46.2,38.4,31.3,37.9,31.1,26.2,91,75,58,30.04,29.79,23,5,23,0.02
2013-10-27,52.5,44.2,38.1,40.5,35.5,30.2,91,72,54,29.91,29.71,19,5,21,0.00
2013-10-28,49.1,39.2,32.5,38.3,30.2,24.1,81,70,57,30.29,29.91,25,5,28,0.00
2013-10-29,46.0,35.3,27.9,26.8,23.7,21.4,82,64,41,30.40,30.28,12,2,14,0.00
2013-10-30,46.2,35.4,27.0,27.7,23.3,20.1,85,63,37,30.31,30.10,19,2,19,0.00
2013-10-31,53.1,40.7,28.2,52.0,36.5,23.7,97,85,70,30.20,29.71,18,3,19,0.25
2013-11-1,64.2,59.4,49.3,61.0,55.9,44.2,98,89,61,29.71,29.18,39,12,39,0.93
2013-11-2,61.0,52.3,41.2,49.1,43.9,35.8,92,74,57,29.75,29.44,23,3,23,0.01
2013-11-3,41.5,35.8,28.6,37.6,23.4,15.8,92,62,39,30.37,29.75,14,3,19,0.03
2013-11-4,41.4,32.3,23.4,21.6,18.3,15.4,80,57,36,30.69,30.37,12,2,15,0.00
2013-11-5,45.9,35.0,25.0,32.2,26.1,18.0,90,70,55,30.69,30.44,19,3,20,0.00
2013-11-6,53.4,42.3,31.3,46.2,37.7,29.7,95,85,64,30.44,29.88,21,4,23,0.00
2013-11-7,54.0,48.0,37.4,52.9,44.5,28.4,96,88,69,29.88,29.56,24,8,27,0.21
2013-11-8,42.4,36.4,30.9,31.8,27.3,22.8,82,70,56,29.86,29.68,21,6,27,0.00
2013-11-9,41.4,35.7,29.8,25.2,22.6,19.9,78,59,43,30.06,29.86,31,5,31,0.00
2013-11-10,35.8,32.5,28.8,34.7,30.4,22.6,100,92,71,30.04,29.65,10,2,11,0.09
2013-11-11,41.9,36.8,32.4,34.7,31.4,28.8,97,81,65,29.91,29.66,20,4,24,0.01
2013-11-12,41.2,31.2,26.4,31.5,20.4,15.1,81,64,51,30.02,29.74,23,7,30,0.00
2013-11-13,32.4,26.8,23.2,17.4,14.7,12.2,72,60,47,30.14,30.00,24,6,27,0.00
2013-11-14,42.1,34.9,25.5,30.2,24.4,15.8,77,65,55,30.02,29.91,14,5,20,0.00
2013-11-15,49.6,39.7,32.4,32.2,29.4,27.5,85,68,47,30.15,30.01,11,3,12,0.00
2013-11-16,52.2,40.7,34.0,33.4,29.6,26.6,78,65,47,30.31,30.14,6,0,6,0.00
2013-11-17,44.1,37.8,29.1,43.0,35.5,26.2,97,92,73,30.33,29.92,7,1,9,0.02
2013-11-18,61.0,53.4,44.2,56.7,47.1,32.5,100,81,49,29.92,29.38,24,6,27,0.39
2013-11-19,45.7,36.2,30.7,36.5,23.3,17.1,70,59,52,30.10,29.48,30,9,32,0.00
2013-11-20,37.8,31.0,27.0,17.1,14.0,9.7,61,50,32,30.57,30.10,23,5,28,0.00
2013-11-21,48.7,35.1,24.4,22.3,16.5,14.0,69,48,26,30.58,30.27,10,3,12,0.00
2013-11-22,40.1,33.9,30.2,31.8,25.3,16.2,91,72,48,30.27,29.70,10,2,11,0.00
2013-11-23,36.3,32.2,24.4,33.6,22.8,13.6,96,69,48,29.70,29.57,26,8,31,0.02
2013-11-24,24.3,20.5,17.4,13.8,7.6,5.0,64,57,50,29.86,29.56,37,12,42,0.01
2013-11-25,27.0,20.0,13.3,7.9,3.6,0.7,59,49,32,30.23,29.86,29,8,34,0.00
2013-11-26,31.8,28.0,24.4,28.2,21.8,7.5,95,78,48,30.25,30.16,16,3,16,0.00
2013-11-27,57.6,44.2,29.1,56.5,43.2,27.9,97,96,93,30.16,29.09,22,6,31,1.82
2013-11-28,36.9,27.1,18.1,35.1,17.6,7.3,94,68,49,30.29,29.18,28,10,32,0.22
2013-11-29,24.6,18.7,14.7,11.3,9.1,7.0,80,66,51,30.68,30.29,16,4,18,0.00
2013-11-30,25.5,19.4,11.5,17.2,10.2,4.3,92,68,42,30.77,30.39,13,3,16,0.00
2013-12-1,30.7,27.9,22.5,29.5,25.9,17.2,96,92,80,30.39,30.10,8,2,9,0.00
2013-12-2,33.6,31.9,29.1,32.9,31.0,28.0,97,97,96,30.10,29.91,12,5,13,0.01
2013-12-3,39.0,34.9,33.3,38.5,34.0,30.4,98,96,88,29.91,29.79,14,3,20,0.34
2013-12-4,41.2,34.2,28.9,32.0,28.4,25.5,88,79,65,30.16,29.80,19,5,21,0.04
2013-12-5,38.5,30.4,22.8,37.8,28.8,20.8,97,93,87,30.24,29.85,7,1,8,0.02
2013-12-6,39.7,38.0,34.7,39.0,34.3,25.0,98,87,65,30.03,29.81,10,2,13,0.20
2013-12-7,34.7,29.6,21.4,26.1,15.5,10.2,71,56,45,30.33,30.00,22,6,25,0.00
2013-12-8,25.3,19.9,16.2,11.1,8.3,6.4,76,61,47,30.56,30.32,15,3,22,0.00
2013-12-9,20.7,18.2,16.0,19.4,13.9,7.9,100,83,61,30.54,29.80,16,4,16,0.00
2013-12-10,30.2,22.4,16.7,27.1,17.6,9.9,93,82,66,29.82,29.67,14,3,16,0.00
2013-12-11,26.8,19.2,10.9,16.2,10.5,5.5,84,69,50,30.04,29.81,23,5,25,0.00
2013-12-12,15.3,9.0,2.5,6.6,-2.0,-6.7,83,61,42,30.22,29.94,13,3,19,0.00
2013-12-13,20.7,8.7,0.0,8.2,-1.5,-9.4,84,64,39,30.36,29.82,27,6,33,0.00
2013-12-14,12.9,3.5,-5.6,-1.8,-8.4,-13.5,69,58,36,30.60,30.35,13,2,14,0.00
2013-12-15,17.1,10.3,4.6,14.4,6.8,-4.0,97,86,60,30.45,29.45,24,8,30,0.00
2013-12-16,19.8,11.0,-2.4,10.9,2.5,-9.0,88,69,43,30.17,29.60,28,7,31,0.00
2013-12-17,11.3,3.9,-6.0,6.4,-3.9,-11.4,88,70,54,30.29,30.07,9,3,11,0.00
2013-12-18,25.5,16.9,9.3,19.4,13.3,6.3,89,85,76,30.08,29.81,13,4,14,0.01
2013-12-19,28.2,23.2,14.7,24.1,19.8,11.5,91,87,83,30.04,29.86,9,3,12,0.00
2013-12-20,29.3,25.8,21.0,28.0,23.6,18.9,95,91,85,30.10,29.91,10,3,11,0.00
2013-12-21,28.2,22.4,18.5,27.1,20.8,16.5,96,93,90,29.98,29.81,14,3,15,0.00
2013-12-22,25.9,23.4,21.2,25.2,22.0,19.6,100,94,92,30.08,29.87,15,6,18,0.00
2013-12-23,28.9,26.2,23.4,27.9,25.1,21.9,96,95,94,30.11,29.96,8,1,8,0.00
2013-12-24,28.4,19.5,8.1,27.3,17.1,4.5,96,90,84,30.12,30.02,11,2,12,0.00
2013-12-25,18.7,10.3,5.7,13.3,6.4,2.3,89,84,78,30.52,30.10,10,2,12,0.03
2013-12-26,19.6,12.9,3.7,18.0,10.7,0.5,93,91,86,30.49,30.05,6,1,8,0.00
2013-12-27,28.2,21.1,13.1,25.3,18.5,10.4,93,90,86,30.14,30.06,11,2,11,0.00
2013-12-28,32.4,24.2,15.1,31.1,22.4,12.4,96,93,86,30.11,29.86,10,3,11,0.00
2013-12-29,32.7,24.3,15.4,31.5,22.8,13.5,96,94,91,30.03,29.58,12,4,15,0.00
2013-12-30,27.9,15.1,1.8,25.7,11.8,-2.9,95,87,76,30.14,29.52,19,4,23,0.00
2013-12-31,9.7,2.8,-2.7,3.9,-1.6,-6.7,92,81,71,30.14,30.01,11,1,11,0.00
2014-1-1,15.1,3.5,-6.5,7.5,-1.7,-10.3,92,79,64,30.41,30.06,15,4,21,0.00
2014-1-2,-3.8,-8.4,-10.5,-8.7,-13.8,-16.2,82,76,72,30.50,30.08,21,6,21,0.00